#timestamp,LO_Frequency,Hit,StdDev 
1546293615.4,286046998.7,N
1546293635.3,286046999.0,N
1546293655.1,286046999.6,N
1546293675.8,286046999.3,N
1546293695.7,286046999.1,N
1546293715.5,286046999.2,N
1546293735.4,286046999.2,N
1546293755.2,286046998.4,N
1546293775.1,286046996.7,Y
1546293776.0,286046996.7,P
1546293795.8,286046996.5,N
1546293815.6,286046998.8,N
1546293835.5,286046998.3,N
1546293855.3,286046998.1,N
1546293875.1,286046998.7,N
1546293895.9,286047000.7,N
1546293915.7,286047000.4,N
1546293935.6,286047000.0,N
1546293955.4,286047000.6,N
1546293975.2,286046998.3,N
1546293995.1,286047001.2,N
1546293996.0,286047001.2,N
1546294015.8,286046998.1,N
1546294035.7,286046999.3,N
1546294055.5,286046997.3,N
1546294075.3,286046995.0,Y
1546294095.2,286046999.6,P
1546294115.0,286046999.6,N
1546294115.9,286046999.6,N
1546294135.8,286046999.2,Y
1546294155.6,286046998.7,P
1546294175.4,286047001.2,P
1546294195.3,286047000.7,N
1546294215.1,286047002.4,N
1546294235.8,286047002.1,N
1546294255.7,286047002.6,N
1546294275.5,286047000.2,N
1546294295.3,286047000.1,N
1546294315.2,286047002.5,N
1546294335.0,286046999.8,N
1546294335.9,286046999.8,N
1546294355.8,286047001.1,N
1546294375.6,286047000.6,N
1546294395.4,286047000.2,N
1546294415.3,286047002.0,N
1546294435.1,286047002.7,N
1546294455.9,286047004.3,Y
1546294475.7,286047002.5,P
1546294495.5,286047002.4,P
1546294515.4,286047002.3,P
1546294535.2,286047000.1,N
1546294555.0,286046999.9,N
1546294555.9,286046999.9,N
1546294575.8,286047000.7,N
1546294595.6,286046999.9,N
1546294615.5,286047000.5,N
1546294635.3,286046998.6,N
1546294655.1,286047000.6,N
1546294675.9,286047000.4,N
1546294695.7,286047000.3,N
1546294715.5,286047000.7,N
1546294735.4,286047001.0,N
1546294755.2,286047000.1,N
1546294775.1,286046998.2,N
1546294776.0,286046998.2,N
1546294795.8,286046998.8,N
1546294815.6,286046996.9,N
1546294835.5,286046999.5,N
1546294855.3,286046999.5,N
1546294875.1,286046999.6,N
1546294895.9,286047000.8,N
1546294915.7,286047000.9,N
1546294935.6,286047000.2,N
1546294955.4,286047002.4,N
1546294975.2,286047001.4,N
1546294995.1,286047001.8,N
1546294996.0,286047001.8,N
1546295015.8,286047001.4,N
1546295035.6,286047001.5,N
1546295055.5,286047002.8,N
1546295075.3,286047002.4,N
1546295095.2,286047002.1,N
1546295115.9,286047003.9,N
1546295135.7,286047003.3,N
1546295155.6,286047003.9,N
1546295175.4,286047001.8,N
1546295195.3,286047001.5,N
1546295215.1,286047002.2,N
1546295216.0,286047002.2,N
1546295235.8,286046999.7,N
1546295255.7,286047002.2,N
1546295275.5,286047004.2,N
1546295295.3,286047003.8,N
1546295315.2,286047002.3,N
1546295335.0,286047002.4,N
1546295335.9,286047002.4,N
1546295355.8,286047002.1,N
1546295375.6,286047002.2,N
1546295395.4,286047001.8,N
1546295415.3,286047002.2,N
1546295435.1,286047000.2,N
1546295455.9,286047002.2,N
1546295475.7,286047002.2,N
1546295495.5,286047002.2,N
1546295515.4,286047001.4,N
1546295535.2,286047001.3,N
1546295555.0,286047002.0,N
1546295555.9,286047002.0,N
1546295575.8,286047004.3,Y
1546295595.6,286047002.8,P
1546295615.5,286047000.4,N
1546295635.3,286047000.8,N
1546295655.1,286047000.7,N
1546295675.9,286047001.2,N
1546295695.7,286046998.8,N
1546295715.5,286047000.3,N
1546295735.4,286047002.7,N
1546295755.2,286047002.4,N
1546295775.1,286047000.1,N
1546295776.0,286047000.1,N
1546295795.8,286047002.6,N
1546295815.6,286047001.9,N
1546295835.5,286047002.3,N
1546295855.3,286046999.8,N
1546295875.2,286046999.7,N
1546295895.9,286047001.5,N
1546295915.7,286047004.3,Y
1546295935.6,286047002.5,P
1546295955.4,286047000.9,N
1546295975.2,286046998.2,N
1546295995.1,286047000.5,N
1546295996.0,286047000.5,N
1546296015.8,286047000.2,N
1546296035.7,286047000.8,N
1546296055.5,286046998.1,N
1546296075.3,286046998.1,N
1546296095.2,286047000.1,N
1546296115.0,286046998.5,N
1546296115.9,286046998.5,N
1546296135.8,286046998.2,N
1546296155.6,286046998.2,N
1546296175.4,286046998.2,N
1546296195.3,286046998.4,N
1546296215.1,286046998.7,N
1546296235.8,286046998.8,N
1546296255.7,286046999.2,N
1546296305.6,286046999.4,E
1546296315.5,286046996.5,N
1546296335.3,286047001.1,P
1546296355.1,286046998.1,N
1546296375.9,286047000.5,N
1546296395.7,286047000.0,N
1546296415.6,286047001.9,N
1546296435.4,286047002.8,N
1546296455.2,286047002.2,N
1546296475.1,286046999.7,N
1546296476.0,286046999.7,N
1546296495.8,286046999.8,N
1546296515.7,286047002.4,N
1546296535.5,286046999.9,N
1546296555.3,286047000.7,N
1546296575.2,286047000.3,N
1546296595.9,286047000.4,N
1546296615.7,286047002.7,N
1546296635.6,286047000.5,N
1546296655.4,286047000.0,N
1546296675.3,286046998.2,N
1546296695.1,286047001.0,N
1546296696.0,286047001.0,N
1546296715.8,286047000.4,N
1546296735.7,286047000.9,N
1546296755.5,286047000.5,N
1546296775.3,286046999.8,N
1546296795.2,286047002.2,N
1546296815.0,286047001.7,N
1546296815.9,286047001.7,N
1546296835.8,286047001.6,N
1546296855.6,286047004.1,N
1546296875.4,286047004.0,Y
1546296895.3,286047001.4,P
1546296915.1,286047001.7,P
1546296935.8,286047001.9,P
1546296955.7,286047001.6,Y
1546296975.5,286046998.1,P
1546296995.4,286046998.8,N
1546297015.2,286046998.8,N
1546297035.0,286047000.3,N
1546297035.9,286047000.3,N
1546297055.8,286047002.4,N
1546297075.6,286047000.6,N
1546297095.5,286047000.6,N
1546297115.3,286046998.6,N
1546297135.1,286046998.1,N
1546297155.9,286046998.5,N
1546297175.7,286046998.4,N
1546297195.5,286046998.2,N
